Showing default

LEMUR 2 OBA-NI-JESU, 58902

Orbit data source: Space-Track

LEMUR 2 OBA-NI-JESU, 58902 is an American payload satellite in SSO that was launched on Wed, 31 Jan 2024 UTC via an ELECTRON launch vehicle from the Rocket Lab Launch Complex (RLLC). Payloads include a variety of satellites, spacecraft, and rockets equipped with specific instruments for various scientific and technological missions. These include communications satellites like Starlink; space stations such as the ISS; scientific satellites like the Hubble; Earth observation satellites from companies like Planet Labs, Umbra, and HawkEye 360; GPS; miniature CubeSats for education and research; and military/defense satellites.

Loading next visibility...
LEMUR 2 OBA-NI-JESU details
Identifier
58902, 2024-022D
Orbit
SSO
Last TLE update15 hours ago
Origin
Flag of USSPIRE/NSTAR (US)
ManufacturerSpire/Glasgow
MissionOperational Commercial Early Warn
Bus & MotorCUBESAT 3U, Unknown motor
Mass~25 kg wet, ~25 kg dry
Launch date (UTC)
2024-01-31 (11 months ago)
Launch vehicle
ELECTRON
Launch site
Rocket Lab Launch Complex (RLLC)
Object type
Payload
Rocket body
Debris
Shape & HBRBox + 2 Pan, 1 m
Radar Cross Section0.146 m², Medium (>0.1 m² and < 1m²)

Expand to show TLE details & history

TLE from 15 hours ago
0 LEMUR 2 OBA-NI-JESU
1 58902U 24022D   24356.09705406  .00025550  00000-0  99242-3 0  9991
2 58902  97.4585 194.9531 0009091 224.4576 135.5933 15.26018743 49262
Epoch: 2024-12-21T02:19Z
Definitive object data (Epoch: 2024-12-21T02:19:45.47Z)
Latitude-0.00008°
Longitude69.86054°
Altitude495.288 km
Speed7.615 km/s
True Right ascension12h 59m 48s
True Declination0° 00' 00"
Sunlit
Object was in daylight at TLE epoch
Visualization TLE readout
Latitude-22.50826°
Longitude-112.60648°
Altitude490.351 km
Speed7.622 km/s
Apparent Right ascension02h 22m 38s
Apparent Declination-33° 37' 53"
Sunlit
Object is in daylight
Visualization observer readout
Local Sidereal Time16:25:16
Azimuth85.316° E
Elevation-64.786°
Doppler factor1
Orbital elements
Apogee altitude490.927 km
Perigee altitude478.449 km
Semi-major axis6,862.825 km
Eccentricity0.0009091
Inclination97.4585°
RAAN194.9531°
Arg. of periapsis224.4576°
True anomaly135.66614°
Mean anomaly135.5933°
Eccentric anomaly135.62972°
Mean motion3.81759 °/min
BSTAR0.00099242
Orbital period94.3 mins
Loading maneuver chart data...
Loading historical data...
Loading historical data...
Loading historical data...
Loading historical data...
Loading historical data...
Loading historical data...
Loading historical data...

LEMUR 2 OBA-NI-JESU Visibility forecast

Observer location: undefined°, undefined

Span
Click to sort rows by Start time (UTC) header in descending order
Start Az.
Max El. time (UTC)
Max El. Az.
Max El.
End time (UTC)
End Az.
6 mins2024-12-22 02:29:39.737Z6.052° NNE2024-12-22 02:32:39.737Z281.739° WNW43.205°2024-12-22 02:35:39.737Z201.401° SSW
5 mins2024-12-22 13:05:39.737Z133.247° SE2024-12-22 13:07:39.737Z84.984° E31.197°2024-12-22 13:10:39.737Z8.852° NNE
|